Weather in Girardot

Colombia     4°17′50″N   74°48′03″W
В апреле 2022 года жителям России запретили посещать сайт meteo.paraplan.net по решению Генеральной прокуратуры. Аудитория сайта уменьшилась в 10 раз. Владельцы сайта не видят смысла в поддержке погодного сервера в таких условиях. Сайт будет закрыт в октябре.
temp.,
°C
wind,
m/s
gust,
m/s
humid.,
%
clouds,
%
prec.,
mm/h
press.,
hPa
HPBL,
m
4 october, tue
tue401:00+22ne2281100 1.1 101020
04:00+21ne118226 0.3 101111
07:00+23nne01777 0.4 1013101
10:00+29wsw115670 0.0 1012866
13:00+33sw334344 0.0 10071486
16:00+33wnw114144 0.0 10041247
19:00+27e3361100 0.1 100750
22:00+23nne2276100 1.0 101033
5 october, wed
wed501:00+22wsw118495 2.7 100914
04:00+21sse1189100 0.4 101012
07:00+22sse0082100 0.4 1012140
10:00+28wsw116075 0.0 1012942
13:00+32wsw114796 0.0 10071364
16:00+32sw114566 0.1 10051260
19:00+27se1161100 0.3 100715
22:00+24ne2378100 1.6 101061
6 october, thu
thu601:00+23ne118994 4.4 100921
04:00+22sw119193 0.8 100912
07:00+23w018796 1.0 1013149
10:00+28nw026671 0.6 10131066
13:00+31nnw345014 0.8 10091570
16:00+31ne334895 0.1 10061476
19:00+24ene227788 0.8 100922
22:00+22ene118782 2.5 101118
7 october, fri
fri701:00+22se008997 3.9 101113
04:00+21e119099 2.0 101115
07:00+22ese1186100 2.5 101383
10:00+27w116891 0.0 1013760
13:00+31wsw11517 0.0 10081347
16:00+30e4354100 0.3 1006911
19:00+23ne2377100 1.1 100855
22:00+22nne1177100 0.4 101013
8 october, sat
sat801:00+22nne0183100 0.9 100911
04:00+21e0191100 1.4 101011
07:00+22ese118887 2.6 1012146
10:00+26sw217232 0.0 1012721
13:00+30sw115637 0.1 10081365
16:00+28e216599 0.0 100423
19:00+25nne227550 0.8 100618
22:00+23nne118590 0.7 100914